Wind_Speed
19 18 18 17 15 15 16 16 16 18 20 21 22 20 19 20 21 20 19 19 19 20 19 20 20 21 21 21 21 20 21 21 21 21 21 21 21 21 21 21 21 20 20 20
22 20 19 18 17 15 15 16 17 19 20 21 23 23 21 21 21 20 21 21 20 21 22 21 21 21 21 21 21 21 21 21 21 21 21 22 21 21 21 21 20 21 21 21
23 21 20 20 18 17 18 19 19 20 21 21 23 24 22 20 21 21 21 21 21 22 22 21 21 21 21 21 21 22 22 22 22 23 23 23 23 23 22 21 21 21 22 22
23 23 24 22 20 20 20 21 20 20 20 22 23 25 24 22 21 22 22 22 22 22 22 22 21 21 21 22 22 22 23 23 23 23 24 23 23 23 23 23 23 22 23 23
25 25 24 23 21 20 21 22 21 20 21 22 23 23 23 21 21 22 22 22 22 22 22 22 22 22 22 22 22 22 23 23 24 24 24 24 24 25 24 24 24 24 24 24
25 26 25 24 22 22 22 23 24 23 23 23 23 24 24 21 20 21 22 22 23 23 23 22 22 23 23 23 23 23 24 25 25 25 25 25 25 26 25 25 24 25 25 25
27 26 26 26 24 23 24 24 25 25 25 24 25 24 22 22 23 22 22 22 23 23 23 23 23 24 24 25 25 25 25 26 26 26 26 26 26 26 25 24 25 25 25 25
28 27 28 28 27 27 27 27 27 27 26 26 25 24 24 25 25 23 24 24 23 24 24 24 24 25 25 26 26 26 27 27 27 27 27 27 27 26 26 26 25 26 26 26
27 28 30 30 30 31 30 30 29 28 28 27 26 26 26 25 25 24 26 25 24 25 25 25 25 26 27 28 28 28 28 27 27 27 28 27 27 26 26 26 25 26 26 26
30 30 30 30 31 31 31 31 31 30 28 28 29 28 28 26 26 26 27 26 25 26 26 26 26 27 28 28 27 27 27 27 27 27 27 27 27 26 27 27 26 26 26 26
32 33 33 33 32 31 32 32 31 30 29 28 30 30 30 28 28 28 27 27 27 27 27 27 27 28 28 28 28 27 27 27 27 27 27 27 27 27 26 26 27 27 27 27
32 33 33 33 33 31 32 32 31 30 29 28 29 28 28 29 29 29 28 27 27 28 28 28 28 28 28 28 28 27 27 26 27 27 27 28 28 28 27 27 27 28 28 29
32 33 34 35 33 32 32 33 32 30 29 29 28 28 28 28 28 28 28 28 28 28 28 29 29 29 29 29 29 28 28 27 28 28 29 29 29 29 29 29 28 28 28 29
34 35 36 37 37 34 33 33 32 32 31 31 30 29 29 29 29 29 29 29 29 29 29 29 30 30 30 29 29 29 29 29 29 30 30 30 30 29 29 29 29 29 28 28
36 36 37 38 37 35 34 33 33 32 32 31 30 30 29 30 30 30 29 29 30 30 29 29 30 30 30 30 29 29 30 30 30 31 31 30 30 30 30 30 29 29 29 29
37 37 37 37 37 35 34 33 32 32 32 31 30 30 30 30 30 30 30 29 30 29 29 29 29 29 29 29 29 30 30 30 30 30 30 30 30 30 30 29 29 29 28 29
35 35 35 35 35 35 33 32 31 31 31 30 30 30 30 30 30 30 29 29 29 30 30 29 29 29 29 29 29 29 30 30 30 29 29 29 29 29 29 29 29 29 29 29
33 33 33 34 35 34 33 32 32 31 31 31 30 30 29 30 30 30 30 30 30 29 29 29 29 29 30 29 29 29 30 30 30 29 29 29 28 28 28 28 28 28 28 28
31 31 32 33 33 32 32 32 31 31 31 31 30 30 30 30 31 31 30 30 30 30 30 30 29 29 29 29 29 29 29 29 29 29 29 28 27 27 27 27 27 26 26 27
29 29 29 30 30 30 30 30 30 30 30 30 30 30 30 31 31 31 31 31 30 30 29 28 28 28 29 29 29 29 29 28 27 27 28 27 25 25 26 27 26 26 27 27
27 28 28 29 29 29 30 30 30 30 30 30 29 29 29 30 30 30 30 30 29 29 28 28 28 28 28 28 29 28 28 27 26 27 27 26 25 26 26 26 26 27 27 27
26 27 28 28 27 28 29 29 30 30 30 30 30 29 30 30 30 30 30 30 29 29 29 29 28 28 28 27 27 27 27 27 27 27 27 27 26 26 26 26 26 26 27 27
25 26 26 26 27 27 28 28 28 29 29 29 29 29 29 30 29 29 29 29 29 28 28 28 27 28 27 27 26 26 26 26 27 27 27 26 26 26 26 27 27 28 28 28
23 23 24 24 25 26 26 27 27 27 27 27 27 28 28 28 28 28 28 27 27 27 27 27 27 27 27 27 27 26 26 27 26 26 26 26 26 26 27 27 27 27 28 28
23 22 23 23 23 24 25 25 26 26 26 26 26 27 27 27 27 27 27 27 28 27 27 27 27 27 27 27 27 26 26 26 25 25 26 26 26 26 26 26 27 27 27 27
22 22 23 23 23 23 24 24 25 25 25 25 25 26 26 26 26 26 26 26 26 26 26 26 26 26 26 26 26 26 25 25 25 25 26 26 26 26 26 26 26 26 26 26
21 21 21 22 22 23 23 24 24 25 25 25 25 26 26 26 26 26 25 25 24 24 25 25 25 26 26 26 26 26 26 26 26 26 26 26 26 26 26 26 25 25 26 26
Wind_Direction
243 246 249 254 256 254 257 260 259 265 273 281 285 288 286 290 295 296 300 301 303 307 308 313 314 315 316 316 317 317 318 316 315 315 315 314 313 312 311 311 311 312 312 314
244 246 249 254 255 255 255 259 261 262 266 275 278 279 280 284 288 292 297 298 299 304 306 308 311 314 315 314 314 314 315 315 314 314 312 313 312 311 310 311 311 311 311 311
241 244 248 251 253 254 256 258 259 262 268 271 275 280 280 283 287 291 295 297 301 303 304 305 308 311 312 314 315 314 314 315 315 313 312 312 312 310 309 308 308 308 308 309
244 245 249 251 252 255 260 261 263 264 266 269 275 279 281 284 287 291 293 296 299 301 302 307 309 310 312 314 315 315 313 313 313 313 312 312 312 311 309 307 306 305 306 308
244 246 252 253 253 254 259 262 264 264 265 268 271 276 280 282 286 289 293 297 300 302 303 307 309 309 310 311 312 313 313 312 311 311 310 310 308 308 308 306 305 305 305 307
247 246 248 250 252 254 258 263 263 263 264 267 271 275 278 277 283 285 290 295 299 301 302 304 306 306 307 308 309 310 312 312 310 311 311 309 308 307 307 306 307 307 307 307
248 248 251 250 250 254 256 258 262 265 265 267 271 274 278 280 282 283 288 293 296 298 301 303 303 303 305 307 308 308 309 310 310 310 310 310 308 306 306 307 308 307 307 307
246 246 249 252 252 253 257 259 261 264 267 269 272 272 274 275 279 283 287 290 294 296 299 300 300 301 302 304 305 307 308 308 308 308 309 310 309 307 306 306 307 308 308 308
246 247 249 250 252 254 257 259 261 263 266 268 271 273 275 276 277 280 283 287 291 294 297 298 299 299 300 301 303 304 305 306 307 308 307 308 310 309 309 307 306 308 307 307
243 246 249 252 254 256 259 260 262 264 266 266 269 270 272 275 277 280 284 287 290 292 295 297 299 300 300 300 301 302 304 305 306 307 308 308 308 308 308 307 307 307 307 307
242 246 251 254 258 260 260 260 262 263 265 268 268 271 273 276 278 280 284 286 288 290 292 296 298 299 299 300 300 301 303 304 305 305 306 307 308 307 307 307 307 308 308 307
245 246 248 253 258 261 263 263 261 262 264 266 268 271 274 275 278 280 281 283 285 288 290 293 296 298 298 299 299 299 300 301 303 304 305 306 307 307 308 307 307 307 307 306
247 249 251 253 258 260 263 263 263 264 264 267 269 271 274 276 277 278 279 281 284 286 289 292 295 297 297 297 298 298 298 299 301 303 304 304 305 306 307 305 305 306 306 305
247 250 252 256 258 259 260 262 264 265 266 267 269 270 272 274 276 276 278 279 280 282 286 289 291 293 295 294 296 297 297 298 299 301 301 302 303 304 305 306 306 306 305 303
249 251 253 256 258 258 259 260 262 264 266 268 269 269 271 273 275 275 277 278 279 279 282 286 289 291 292 293 294 295 296 297 298 299 300 301 302 303 304 304 305 306 306 305
251 253 255 256 257 258 259 260 261 263 264 265 268 270 271 273 274 276 277 277 278 280 283 286 288 290 292 292 292 294 296 297 298 299 299 299 300 301 302 302 303 304 304 305
250 251 254 256 257 258 259 259 260 262 263 265 268 271 273 273 275 277 278 280 280 282 284 285 287 289 291 291 292 292 294 297 298 299 299 300 300 300 301 302 303 304 305 306
253 254 256 257 257 257 257 258 260 262 264 267 269 271 272 273 275 277 278 280 281 282 283 286 287 288 289 291 293 293 294 297 299 300 301 300 299 300 302 303 304 304 304 305
253 254 256 258 258 257 257 258 259 261 264 264 266 268 270 273 275 276 278 280 281 282 283 285 286 287 289 292 293 294 296 297 298 299 300 299 298 299 301 302 303 304 305 306
253 253 254 255 255 255 256 256 258 260 263 265 267 268 270 272 273 275 277 279 280 282 283 284 286 288 290 291 293 295 297 299 299 298 299 300 300 300 300 301 302 304 304 305
253 253 254 254 253 255 257 258 258 260 262 265 268 270 271 272 274 276 277 279 280 281 282 284 286 287 290 291 292 295 296 297 297 298 298 299 299 301 301 301 300 302 303 304
253 253 253 252 253 256 258 259 260 261 263 266 268 270 272 273 274 275 276 277 279 281 283 284 286 287 288 290 292 294 296 296 296 296 296 296 297 299 300 301 301 302 301 303
252 252 252 253 253 255 257 260 262 265 267 268 269 271 272 273 275 276 276 277 279 281 282 284 286 287 288 289 290 291 294 295 296 296 297 296 297 298 299 300 300 301 302 303
252 252 253 255 255 255 257 261 264 266 267 269 270 271 272 272 274 275 276 277 278 279 281 283 284 286 287 289 290 291 292 294 295 296 297 297 298 299 300 301 301 302 303 305
251 253 253 254 256 259 260 262 263 265 267 269 271 271 272 274 275 275 275 276 278 279 280 282 283 284 284 286 288 290 291 292 294 296 297 298 299 300 301 302 303 304 305 305
251 251 253 255 257 260 263 264 265 266 268 270 271 272 273 274 275 274 275 277 279 280 281 282 283 284 285 287 288 290 291 291 292 293 295 297 298 300 301 303 304 304 305 306
253 254 256 258 259 261 262 265 266 268 269 271 272 273 274 275 275 275 276 277 278 280 282 283 284 285 285 286 287 289 290 291 292 293 294 295 296 298 300 302 304 305 305 305
Height
5884 5884 5886 5887 5888 5889 5890 5890 5890 5890 5888 5885 5884 5882 5880 5879 5878 5877 5876 5874 5872 5870 5867 5865 5864 5862 5859 5856 5854 5851 5849 5847 5844 5842 5839 5837 5835 5833 5830 5828 5826 5824 5822 5819
5878 5879 5880 5881 5883 5884 5885 5886 5885 5885 5884 5882 5880 5878 5876 5875 5874 5873 5872 5869 5868 5867 5865 5863 5861 5858 5856 5853 5851 5848 5846 5843 5841 5838 5835 5833 5831 5828 5826 5824 5822 5819 5817 5815
5873 5875 5875 5877 5879 5880 5880 5880 5880 5879 5879 5877 5875 5873 5871 5870 5870 5869 5868 5866 5864 5863 5861 5859 5857 5855 5852 5850 5847 5845 5842 5840 5837 5834 5832 5829 5826 5824 5821 5819 5817 5815 5813 5810
5867 5869 5869 5874 5874 5875 5875 5874 5874 5872 5872 5871 5870 5868 5866 5865 5865 5864 5863 5862 5861 5859 5857 5855 5853 5850 5848 5846 5843 5841 5838 5836 5833 5830 5827 5825 5822 5819 5817 5814 5812 5810 5808 5805
5861 5862 5864 5867 5868 5868 5868 5868 5867 5867 5867 5867 5864 5863 5861 5860 5860 5859 5858 5857 5856 5854 5852 5851 5848 5846 5844 5841 5839 5836 5834 5831 5828 5825 5823 5820 5817 5814 5812 5809 5807 5805 5803 5800
5854 5856 5858 5861 5861 5861 5862 5861 5861 5860 5860 5860 5859 5858 5855 5855 5855 5854 5853 5853 5851 5849 5848 5846 5844 5841 5839 5837 5834 5832 5829 5826 5823 5820 5818 5815 5812 5809 5806 5804 5801 5799 5797 5794
5847 5849 5850 5852 5854 5855 5856 5855 5854 5854 5854 5853 5853 5854 5851 5850 5849 5848 5848 5847 5846 5844 5843 5841 5839 5837 5834 5832 5829 5827 5824 5821 5818 5815 5812 5810 5806 5803 5801 5798 5796 5793 5791 5788
5840 5842 5845 5845 5846 5848 5847 5847 5847 5847 5847 5847 5847 5847 5846 5845 5844 5842 5842 5841 5841 5839 5838 5836 5834 5832 5829 5827 5824 5821 5819 5816 5813 5810 5807 5804 5801 5798 5795 5792 5790 5787 5785 5782
5833 5835 5835 5836 5838 5838 5839 5840 5840 5841 5841 5841 5841 5839 5839 5838 5837 5837 5836 5835 5834 5833 5832 5830 5828 5826 5824 5821 5818 5816 5813 5810 5807 5804 5801 5798 5795 5792 5789 5786 5784 5781 5778 5776
5824 5825 5826 5827 5828 5830 5832 5833 5834 5834 5834 5834 5834 5833 5832 5832 5832 5831 5830 5828 5827 5827 5825 5824 5822 5819 5817 5814 5812 5809 5807 5804 5801 5799 5796 5793 5789 5786 5784 5781 5778 5775 5772 5769
5816 5818 5819 5819 5820 5822 5824 5825 5826 5827 5826 5826 5826 5826 5826 5825 5825 5824 5824 5822 5821 5820 5819 5817 5815 5812 5810 5808 5805 5802 5800 5798 5795 5793 5790 5787 5783 5780 5778 5775 5771 5768 5765 5763
5808 5809 5810 5811 5812 5814 5815 5816 5818 5818 5818 5818 5818 5818 5818 5818 5817 5817 5816 5815 5814 5813 5811 5809 5807 5806 5803 5801 5798 5796 5794 5791 5789 5786 5783 5781 5778 5775 5772 5769 5765 5762 5759 5756
5798 5799 5801 5802 5803 5805 5807 5808 5808 5810 5810 5809 5809 5810 5810 5810 5810 5810 5809 5808 5807 5805 5803 5801 5800 5798 5796 5794 5791 5789 5787 5785 5782 5779 5777 5774 5771 5768 5765 5761 5758 5755 5752 5749
5790 5791 5793 5794 5796 5798 5799 5800 5801 5801 5802 5802 5802 5802 5803 5803 5802 5802 5801 5800 5799 5798 5797 5795 5793 5791 5789 5787 5784 5782 5780 5778 5775 5773 5770 5767 5764 5761 5757 5754 5751 5749 5745 5742
5781 5783 5784 5786 5787 5789 5791 5791 5792 5793 5794 5793 5794 5794 5794 5794 5794 5793 5793 5792 5791 5790 5789 5787 5786 5784 5782 5780 5778 5775 5773 5771 5768 5765 5762 5759 5756 5753 5750 5747 5744 5741 5738 5735
5773 5774 5775 5777 5779 5780 5782 5783 5784 5784 5785 5785 5786 5786 5786 5786 5785 5785 5785 5784 5783 5782 5781 5780 5778 5776 5774 5772 5770 5768 5766 5763 5761 5758 5754 5751 5748 5745 5742 5739 5736 5734 5731 5727
5763 5765 5767 5768 5770 5772 5773 5774 5775 5776 5777 5777 5778 5778 5778 5777 5777 5777 5776 5776 5775 5774 5773 5772 5770 5769 5767 5765 5763 5760 5758 5756 5753 5749 5746 5743 5740 5737 5734 5731 5728 5725 5722 5719
5755 5757 5759 5760 5761 5763 5765 5766 5767 5768 5769 5770 5770 5770 5769 5769 5769 5769 5768 5768 5767 5766 5765 5764 5762 5761 5759 5757 5755 5752 5750 5747 5744 5741 5738 5735 5732 5729 5726 5724 5721 5718 5714 5711
5746 5748 5750 5751 5753 5754 5756 5758 5759 5760 5761 5762 5762 5761 5761 5761 5761 5760 5760 5759 5758 5758 5757 5756 5754 5753 5751 5749 5747 5745 5742 5739 5736 5733 5730 5728 5725 5722 5719 5716 5713 5710 5707 5704
5738 5740 5741 5743 5745 5746 5748 5749 5750 5752 5753 5753 5753 5753 5753 5753 5753 5752 5752 5751 5750 5749 5749 5748 5746 5745 5743 5741 5739 5736 5733 5731 5728 5725 5723 5720 5717 5714 5712 5709 5706 5703 5700 5697
5730 5732 5733 5735 5737 5739 5740 5741 5743 5744 5744 5745 5745 5745 5745 5745 5744 5744 5743 5742 5742 5741 5740 5739 5738 5737 5735 5733 5731 5728 5726 5723 5721 5718 5715 5712 5709 5707 5705 5702 5699 5696 5694 5691
5723 5724 5726 5728 5730 5731 5732 5733 5734 5735 5736 5736 5736 5737 5737 5736 5736 5735 5735 5734 5733 5733 5732 5731 5730 5728 5726 5725 5723 5721 5718 5715 5713 5710 5708 5705 5702 5700 5698 5695 5692 5690 5687 5684
5715 5717 5719 5721 5722 5723 5724 5725 5726 5727 5727 5728 5728 5728 5728 5728 5727 5727 5726 5725 5725 5724 5723 5722 5721 5720 5718 5716 5715 5713 5710 5708 5705 5703 5700 5697 5695 5693 5690 5688 5685 5682 5679 5676
5708 5710 5712 5713 5714 5715 5716 5717 5718 5719 5719 5719 5719 5719 5719 5719 5718 5718 5717 5717 5716 5715 5714 5713 5713 5711 5709 5708 5706 5704 5702 5700 5697 5695 5693 5690 5688 5685 5683 5680 5677 5674 5672 5669
5701 5703 5704 5706 5707 5708 5709 5709 5710 5711 5711 5712 5711 5711 5711 5710 5710 5709 5709 5708 5707 5707 5706 5705 5704 5703 5702 5700 5698 5696 5694 5692 5690 5688 5686 5683 5681 5678 5676 5673 5670 5667 5664 5661
5695 5696 5697 5698 5699 5700 5701 5702 5702 5703 5703 5704 5704 5703 5703 5703 5702 5701 5700 5700 5699 5698 5697 5697 5696 5695 5693 5692 5690 5689 5687 5685 5683 5680 5678 5676 5674 5671 5669 5666 5663 5660 5657 5654
5688 5690 5691 5692 5693 5693 5694 5694 5695 5695 5695 5696 5696 5695 5695 5695 5694 5693 5692 5692 5691 5690 5689 5688 5687 5686 5685 5684 5682 5681 5679 5677 5675 5673 5670 5668 5666 5664 5661 5658 5656 5653 5650 5647